{"data":{"norad_id":59465,"intl_designator":"2024-068L","name":"STARLINK-31621","alt_names":[],"object_type":"PAYLOAD","status":"ACTIVE","operator":null,"country":"US","launch_date":"2024-04-10","launch_site_code":"AFETR","launch_vehicle":null,"mission":null,"orbit_class":"UNKNOWN","rcs_meters":null,"size_class":null,"mass_kg":null,"dimensions":null,"purposes":["comms"],"wikipedia_slug":null,"has_3d_model":false,"image_url":null,"decayed_at":null,"tle_current":{"epoch":"2026-09-21T08:10:03.165888Z","epoch_age_seconds":93001,"freshness":"FRESH","line1":"1 59465U 24068L   26264.34031442  .00004156  00000+0  16060-3 0  9991","line2":"2 59465  43.0077   9.7130 0001380 269.9491  90.1203 15.27555582138444","mean_motion":15.27555582,"eccentricity":0.000138,"inclination_deg":43.0077,"raan_deg":9.713,"arg_perigee_deg":269.9491,"mean_anomaly_deg":90.1203,"bstar":0.0001606,"rev_number":13844,"period_min":94.268255569112,"perigee_km":482.17535951852,"apogee_km":484.06906706139,"semimajor_km":6861.25921329,"source":"CELESTRAK","updated_at":"2026-09-22T09:00:48.948502Z"}}}